Weather History for Auburn-Lewiston, ME

Change the Weather History Date:

Thursday, September 22, 2011

  Actual Average Record
Temperature  
Mean Temperature 64 °F -  
Max Temperature 69 °F 65 °F 80 °F (2005)
Min Temperature 59 °F 46 °F 33 °F (1997)
Degree Days  
Heating Degree Days 1    
Growing Degree Days 14 (Base 50)    
Moisture  
Dew Point 61 °F    
Average Humidity 95    
Maximum Humidity 100    
Minimum Humidity 83    
Precipitation  
Precipitation 0.35 in - - ()
Sea Level Pressure  
Sea Level Pressure 30.17 in    
Wind  
Wind Speed 1 mph (SSE)    
Max Wind Speed 7 mph    
Max Gust Speed -    
Visibility 5 miles    
Events      
Averages and records for this station are not official NWS values.
T = Trace of Precipitation, MM = Missing Value Source: NWS Daily Summary

Daily Weather History Graph

Daily Weather History Graph

Search for Another Location

Airport:

Trip Planner

Search our weather history database for the weather conditions in past years. The results will help you decide how hot, cold, wet, or windy it might be!

Date:

Astronomy

Sep. 22, 2011 Rise Set
Actual Time 6:27 AM EDT 6:39 PM EDT
Civil Twilight 5:59 AM EDT 7:07 PM EDT
Nautical Twilight 5:25 AM EDT 7:41 PM EDT
Astronomical Twilight 4:50 AM EDT 8:16 PM EDT
Moon 12:34 AM EDT (9/22) 3:39 PM EDT (9/22)
Length of Visible Light 13h 08m
Length of Day
12h 11m
Waning Crescent, 29% of the Moon is Illuminated
Sep 22
Waning Crescent
Sep 27
New
Oct 3
First Quarter
Oct 11
Full
Oct 19
Last Quarter

Hourly Weather History & Observations

Time (EDT) Temp. Dew Point Humidity Pressure Visibility Wind Dir Wind Speed Gust Speed Precip Events Conditions
12:15 AM 59.0 °F 57.2 °F 94% 30.22 in 0.2 mi Calm Calm - N/A   Unknown
12:35 AM 59.0 °F 57.2 °F 94% 30.23 in 0.5 mi Calm Calm - N/A   Unknown
12:55 AM 59.0 °F 57.2 °F 94% 30.23 in 0.5 mi Calm Calm - N/A   Mostly Cloudy
1:15 AM 59.0 °F 57.2 °F 94% 30.23 in 0.5 mi Calm Calm - N/A   Mostly Cloudy
1:35 AM 59.0 °F 57.2 °F 94% 30.22 in 0.5 mi Calm Calm - N/A   Unknown
1:55 AM 59.0 °F 57.2 °F 94% 30.21 in 0.5 mi Calm Calm - N/A   Unknown
2:15 AM 59.0 °F 57.2 °F 94% 30.21 in 0.5 mi Calm Calm - N/A   Unknown
2:35 AM 59.0 °F 57.2 °F 94% 30.20 in 0.5 mi Calm Calm - N/A   Unknown
2:55 AM 59.0 °F 59.0 °F 100% 30.20 in 0.5 mi Calm Calm - N/A   Unknown
3:15 AM 59.0 °F 57.2 °F 94% 30.20 in 0.2 mi Calm Calm - N/A   Unknown
3:35 AM 59.0 °F 57.2 °F 94% 30.19 in 0.2 mi Calm Calm - N/A   Unknown
3:55 AM 59.0 °F 59.0 °F 100% 30.19 in 0.2 mi Calm Calm - N/A   Unknown
4:15 AM 59.0 °F 59.0 °F 100% 30.19 in 0.2 mi Calm Calm - N/A   Unknown
4:35 AM 60.8 °F 59.0 °F 94% 30.18 in 0.8 mi South 4.6 mph - N/A   Mostly Cloudy
4:55 AM 60.8 °F 59.0 °F 94% 30.18 in 0.8 mi South 3.5 mph - N/A   Mostly Cloudy
5:15 AM 60.8 °F 59.0 °F 94% 30.19 in 1.2 mi Calm Calm - N/A   Overcast
5:35 AM 60.8 °F 59.0 °F 94% 30.19 in 1.2 mi Calm Calm - 0.02 in   Mostly Cloudy
5:55 AM 59.0 °F 59.0 °F 100% 30.19 in 4.0 mi Calm Calm - 0.07 in   Mostly Cloudy
6:35 AM 60.8 °F 59.0 °F 94% 30.19 in 4.0 mi SE 3.5 mph - 0.09 in   Overcast
6:55 AM 60.8 °F 59.0 °F 94% 30.18 in 4.0 mi Calm Calm - 0.14 in   Overcast
7:15 AM 60.8 °F 59.0 °F 94% 30.18 in 5.0 mi Calm Calm - 0.01 in   Overcast
7:35 AM 60.8 °F 59.0 °F 94% 30.19 in 4.0 mi Calm Calm - 0.08 in   Overcast
7:55 AM 60.8 °F 60.8 °F 100% 30.18 in 3.0 mi Calm Calm - 0.10 in   Mostly Cloudy
8:15 AM 60.8 °F 60.8 °F 100% 30.17 in 10.0 mi South 3.5 mph - N/A   Overcast
8:35 AM 62.6 °F 60.8 °F 94% 30.18 in 8.0 mi SSW 5.8 mph - 0.01 in   Overcast
8:55 AM 62.6 °F 60.8 °F 94% 30.18 in 6.0 mi Calm Calm - 0.03 in   Overcast
9:15 AM 62.6 °F 60.8 °F 94% 30.19 in 10.0 mi Calm Calm - 0.01 in   Overcast
9:35 AM 62.6 °F 60.8 °F 94% 30.18 in 10.0 mi SSE 3.5 mph - 0.01 in   Overcast
9:55 AM 62.6 °F 62.6 °F 100% 30.18 in 8.0 mi Calm Calm - 0.01 in   Overcast
10:35 AM 62.6 °F 62.6 °F 100% 30.17 in 7.0 mi South 6.9 mph - N/A   Overcast
10:55 AM 62.6 °F 60.8 °F 94% 30.17 in 2.5 mi South 4.6 mph - N/A   Overcast
11:15 AM 64.4 °F 62.6 °F 94% 30.17 in 4.0 mi South 4.6 mph - N/A   Overcast
11:55 AM 64.4 °F 62.6 °F 94% 30.16 in 4.0 mi South 5.8 mph - N/A   Overcast
12:35 PM 64.4 °F 64.4 °F 100% 30.16 in 10.0 mi SSE 5.8 mph - N/A   Overcast
12:55 PM 64.4 °F 64.4 °F 100% 30.16 in 10.0 mi South 6.9 mph - N/A   Overcast
1:15 PM 66.2 °F 64.4 °F 94% 30.15 in 10.0 mi SSE 3.5 mph - N/A   Overcast
1:35 PM 66.2 °F 64.4 °F 94% 30.14 in 10.0 mi Calm Calm - N/A   Overcast
1:55 PM 66.2 °F 64.4 °F 94% 30.14 in 10.0 mi SSE 3.5 mph - N/A   Overcast
2:15 PM 66.2 °F 64.4 °F 94% 30.14 in 10.0 mi SSE 5.8 mph - N/A   Overcast
2:35 PM 66.2 °F 64.4 °F 94% 30.13 in 10.0 mi SSE 5.8 mph - N/A   Overcast
2:55 PM 68.0 °F 64.4 °F 88% 30.14 in 10.0 mi SSE 6.9 mph - N/A   Overcast
3:15 PM 66.2 °F 64.4 °F 94% 30.13 in 10.0 mi SSE 4.6 mph - N/A   Overcast
3:35 PM 69.8 °F 64.4 °F 83% 30.13 in 10.0 mi South 6.9 mph - N/A   Overcast
3:55 PM 68.0 °F 64.4 °F 88% 30.13 in 10.0 mi SSE 5.8 mph - N/A   Overcast
4:15 PM 66.2 °F 64.4 °F 94% 30.12 in 10.0 mi South 6.9 mph - N/A   Overcast
4:35 PM 66.2 °F 64.4 °F 94% 30.12 in 10.0 mi South 3.5 mph - N/A   Overcast
4:55 PM 66.2 °F 64.4 °F 94% 30.12 in 10.0 mi Calm Calm - N/A   Overcast
5:15 PM 66.2 °F 64.4 °F 94% 30.11 in 10.0 mi SSE 4.6 mph - N/A   Overcast
5:35 PM 66.2 °F 64.4 °F 94% 30.11 in 10.0 mi SSE 4.6 mph - N/A   Overcast
5:55 PM 66.2 °F 64.4 °F 94% 30.12 in 10.0 mi SSE 3.5 mph - N/A   Overcast
6:35 PM 66.2 °F 64.4 °F 94% 30.12 in 3.0 mi SSE 4.6 mph - N/A   Overcast
6:55 PM 66.2 °F 64.4 °F 94% 30.12 in 3.0 mi SSE 3.5 mph - N/A   Overcast
7:15 PM 66.2 °F 64.4 °F 94% 30.12 in 5.0 mi Calm Calm - N/A   Overcast
7:35 PM 64.4 °F 64.4 °F 100% 30.12 in 4.0 mi South 3.5 mph - N/A   Overcast
7:55 PM 64.4 °F 64.4 °F 100% 30.12 in 5.0 mi SE 3.5 mph - N/A   Overcast
8:15 PM 64.4 °F 64.4 °F 100% 30.13 in 5.0 mi SSE 3.5 mph - N/A   Overcast
8:35 PM 64.4 °F 64.4 °F 100% 30.12 in 3.0 mi SSE 4.6 mph - N/A   Overcast
8:55 PM 64.4 °F 64.4 °F 100% 30.12 in 3.0 mi SE 3.5 mph - N/A   Overcast
9:15 PM 64.4 °F 64.4 °F 100% 30.13 in 1.2 mi South 3.5 mph - N/A   Overcast
9:35 PM 64.4 °F 64.4 °F 100% 30.13 in 0.8 mi SSE 4.6 mph - N/A   Mostly Cloudy
9:55 PM 64.4 °F 62.6 °F 94% 30.13 in 0.8 mi SSE 3.5 mph - N/A   Mostly Cloudy
10:15 PM 64.4 °F 62.6 °F 94% 30.14 in 0.8 mi South 3.5 mph - N/A   Mostly Cloudy
10:35 PM 64.4 °F 62.6 °F 94% 30.14 in 0.8 mi Calm Calm - N/A   Mostly Cloudy
10:55 PM 64.4 °F 62.6 °F 94% 30.13 in 0.8 mi SE 3.5 mph - N/A   Mostly Cloudy
11:15 PM 64.4 °F 62.6 °F 94% 30.14 in 1.8 mi South 3.5 mph - N/A   Overcast
11:35 PM 64.4 °F 62.6 °F 94% 30.13 in 3.0 mi Calm Calm - N/A   Overcast
11:55 PM 64.4 °F 62.6 °F 94% 30.13 in 4.0 mi Calm Calm - N/A   Overcast